Location: Sternwarte-Kraichtal
(49.1689°N, 8.6996°E)
Time: 20:15:45
(UTC+02:00)

Vanguard 2 Rocket - Pass Details

Date: 30 May 2022
Orbit: 553 x 3323 km, 32.9° (Epoch: 02 July)

Event Time Altitude Azimuth Distance (km) Brightness Sun altitude
Rises 12:11:59 0° 210° (SSW) 6,963 11.6 59.2°
Reaches altitude 10° 12:17:27 10° 201° (SSW) 6,148 11.5 59.7°
Maximum altitude 12:32:58 30° 150° (SSE) 4,739 11.7 60.9°
Drops below altitude 10° 12:46:56 10° 99° (E) 5,572 11.2 61.7°
Sets 12:51:29 0° 90° (E) 6,249 11.3 61.9°
